{"data":{"norad_id":52535,"intl_designator":"2022-051C","name":"STARLINK-3958","alt_names":[],"object_type":"PAYLOAD","status":"ACTIVE","operator":null,"country":"US","launch_date":"2022-05-13","launch_site_code":"AFWTR","launch_vehicle":null,"mission":null,"orbit_class":"UNKNOWN","rcs_meters":null,"size_class":null,"mass_kg":null,"dimensions":null,"purposes":["comms"],"wikipedia_slug":null,"has_3d_model":false,"image_url":null,"decayed_at":null,"tle_current":{"epoch":"2026-05-25T03:37:37.537824Z","epoch_age_seconds":65282,"freshness":"FRESH","line1":"1 52535U 22051C   26145.15112891  .00000073  00000+0  22643-4 0  9996","line2":"2 52535  53.2139 145.8694 0001002  66.1894 293.9203 15.08846769222984","mean_motion":15.08846769,"eccentricity":0.0001002,"inclination_deg":53.2139,"raan_deg":145.8694,"arg_perigee_deg":66.1894,"mean_anomaly_deg":293.9203,"bstar":2.2643e-5,"rev_number":22298,"period_min":95.437126525073,"perigee_km":539.0295293746,"apogee_km":540.41586845827,"semimajor_km":6917.8596989164,"source":"CELESTRAK","updated_at":"2026-05-25T13:38:17.160964Z"}}}